Stations météo

réclame
Mon MeteoGroup
Bastia, France (7790): Température de l'air & dewpoint: 17.10.2018 12:00:00 - 23.10.2018 12:00:00 (CEST)Bastia, France (7790): Température de l'air 5cm: 17.10.2018 12:00:00 - 23.10.2018 12:00:00 (CEST)Bastia, France (7790): Température de l'air -20cm & Température de l'air -100cm: 17.10.2018 12:00:00 - 23.10.2018 12:00:00 (CEST)Bastia, France (7790): Vitesse du vent & gusts: 17.10.2018 12:00:00 - 23.10.2018 12:00:00 (CEST)Bastia, France (7790): Direction du vent: 17.10.2018 12:00:00 - 23.10.2018 12:00:00 (CEST)Bastia, France (7790): reduced air pressure: 17.10.2018 12:00:00 - 23.10.2018 12:00:00 (CEST)Bastia, France (7790): visibility: 17.10.2018 12:00:00 - 23.10.2018 12:00:00 (CEST)Bastia, France (7790): Ensoleillement: 17.10.2018 12:00:00 - 23.10.2018 12:00:00 (CEST)Bastia, France (7790): Quantités de précipitations: 17.10.2018 12:00:00 - 23.10.2018 12:00:00 (CEST)
Date & Time tt [°C] td [°C] tt 5cm [°C] tt -20cm [°C] tt -100cm [°C] ff [km/h] ff [knt] fx [km/h] fx [knt] dd ppp [hPa] vv [km] sd [min] rr [mm]
23.10.2018 12:00:00 - - - - - - - - - - - - - -
23.10.2018 11:00:00 19,0 11,1 21,3 18,5 20,5 26 14 39 21 N 1022,9 11 60 0,0
23.10.2018 10:00:00 18,3 10,9 17,9 18,6 20,5 27 15 47 25 NNE 1022,8 8 60 0,0
23.10.2018 09:00:00 17,8 10,4 14,5 18,6 20,5 27 15 43 23 N 1022,6 7 42 0,0
23.10.2018 08:00:00 16,5 9,4 9,0 18,7 20,5 20 11 38 21 N 1021,7 29 0 0,0
23.10.2018 07:00:00 11,3 8,3 8,8 18,8 20,5 7 4 21 12 SSW 1021,6 47 0 0,0
23.10.2018 06:00:00 12,5 8,2 9,3 18,9 20,5 6 3 20 11 WSW 1021,1 55 0 0,0
23.10.2018 05:00:00 12,2 8,1 8,6 18,9 20,5 13 7 19 10 SW 1020,7 56 0 0,0
23.10.2018 04:00:00 11,4 7,7 9,1 19,0 20,5 9 5 23 13 WSW 1021,3 59 0 0,0
23.10.2018 03:00:00 11,9 7,8 9,2 19,1 20,5 8 5 23 12 SW 1021,7 57 0 0,0
23.10.2018 02:00:00 12,0 7,5 10,2 19,2 20,6 9 5 23 12 S 1021,7 60 0 0,0
23.10.2018 01:00:00 13,5 7,5 8,0 19,2 20,6 14 8 22 12 WSW 1021,3 60 0 0,0
23.10.2018 00:00:00 11,2 7,7 7,5 19,2 20,5 6 3 17 9 SW 1021,1 60 0 0,0
22.10.2018 23:00:00 10,8 8,0 7,1 19,3 20,5 9 5 13 7 WSW 1021,0 55 0 0,0
22.10.2018 22:00:00 13,8 7,3 8,5 19,3 20,6 10 6 17 9 W 1020,8 60 0 0,0
22.10.2018 21:00:00 14,6 6,4 10,7 19,4 20,6 9 5 23 12 WNW 1020,3 60 0 0,0
22.10.2018 20:00:00 15,6 6,0 8,8 19,3 20,6 15 8 24 13 NW 1019,6 60 0 0,0
22.10.2018 19:00:00 15,2 7,2 11,4 19,3 20,6 9 5 26 14 WNW 1018,7 60 7 0,0
22.10.2018 18:00:00 16,6 8,0 15,6 19,3 20,6 18 10 31 17 NNW 1018,1 48 60 0,0
22.10.2018 17:00:00 17,5 8,1 18,9 19,3 20,6 17 9 34 18 N 1018,0 22 60 0,0
22.10.2018 16:00:00 17,7 7,4 20,6 19,3 20,6 21 12 38 21 N 1017,6 14 60 0,0
22.10.2018 15:00:00 18,3 8,8 22,5 19,3 20,6 21 12 39 21 N 1017,9 13 60 0,0
22.10.2018 14:00:00 18,1 7,5 19,2 19,3 20,6 19 11 35 19 N 1018,5 16 51 0,0
22.10.2018 13:00:00 17,4 6,6 18,7 19,5 20,6 24 13 49 27 N 1019,2 13 57 0,0
22.10.2018 12:00:00 17,4 8,0 21,0 19,5 20,6 35 19 51 28 NNE 1019,7 14 60 0,0
22.10.2018 11:00:00 16,6 7,8 19,2 19,6 20,6 26 14 42 23 N 1019,9 11 60 0,0
22.10.2018 10:00:00 16,0 7,0 16,0 19,7 20,6 27 15 48 26 N 1020,0 20 60 0,0
22.10.2018 09:00:00 15,5 5,4 12,8 19,8 20,6 30 16 50 27 NNE 1019,9 36 43 0,0
22.10.2018 08:00:00 14,4 5,7 12,6 19,9 20,6 27 15 48 26 N 1019,2 34 0 0,0
22.10.2018 07:00:00 14,5 5,6 12,3 20,0 20,6 22 12 48 26 NNE 1019,3 60 0 0,0
22.10.2018 06:00:00 14,7 5,5 12,2 20,0 20,6 21 12 48 26 NNE 1019,5 60 0 0,0
22.10.2018 05:00:00 15,0 4,7 12,3 20,0 20,6 23 13 41 22 N 1019,1 60 0 0,0
22.10.2018 04:00:00 14,4 5,2 12,4 20,1 20,6 16 8 38 20 N 1019,4 60 0 0,0
22.10.2018 03:00:00 15,3 5,8 11,1 20,1 20,6 22 12 35 19 N 1020,2 60 0 0,0
22.10.2018 02:00:00 15,1 4,2 14,2 20,1 20,6 18 10 53 29 N 1020,3 60 0 0,0
22.10.2018 01:00:00 16,5 7,2 15,2 20,1 20,6 20 11 32 18 N 1019,9 60 0 0,0
22.10.2018 00:00:00 17,0 10,1 16,1 20,1 20,6 18 10 41 22 N 1020,1 60 0 0,0
21.10.2018 23:00:00 18,1 11,9 17,1 20,1 20,6 24 13 46 25 NNE 1019,4 60 0 0,0
21.10.2018 22:00:00 18,6 14,7 16,2 20,1 20,6 8 4 23 12 N 1017,1 19 0 0,0
21.10.2018 21:00:00 19,1 14,8 16,4 20,0 20,6 7 4 17 9 WNW 1016,3 18 0 0,0
21.10.2018 20:00:00 19,2 15,9 16,3 20,0 20,6 8 4 14 7 W 1015,7 17 0 0,0
21.10.2018 19:00:00 19,5 16,3 17,9 19,9 20,6 4 2 10 5 S 1015,3 10 9 0,0
21.10.2018 18:00:00 21,1 15,2 20,1 19,8 20,6 6 4 21 11 N 1014,8 20 60 0,0
21.10.2018 17:00:00 22,2 17,1 24,9 19,7 20,6 9 5 16 9 E 1014,9 18 60 0,0
21.10.2018 16:00:00 23,1 17,8 28,3 19,7 20,6 12 6 26 14 E 1015,4 2,2 60 0,0
21.10.2018 15:00:00 23,4 16,7 30,8 19,6 20,6 8 4 22 12 E 1015,9 20 60 0,0
21.10.2018 14:00:00 23,6 17,1 28,1 19,6 20,6 9 5 27 15 E 1016,5 18 60 0,0
21.10.2018 13:00:00 23,2 16,0 28,2 19,6 20,6 20 11 27 15 N 1017,7 20 60 0,0
21.10.2018 12:00:00 23,9 14,0 26,8 19,7 20,6 5 3 19 11 S 1018,3 20 60 0,0
21.10.2018 11:00:00 21,3 13,2 24,6 19,8 20,6 13 7 21 11 SSW 1018,6 57 60 0,0
21.10.2018 10:00:00 19,6 12,6 19,5 19,8 20,6 9 5 14 8 SW 1019,0 46 60 0,0
21.10.2018 09:00:00 17,7 11,9 14,5 19,9 20,6 10 5 27 15 WSW 1019,3 45 54 0,0
21.10.2018 08:00:00 16,6 11,1 13,1 20,0 20,6 16 8 29 16 WSW 1018,8 35 0 0,0
21.10.2018 07:00:00 16,1 11,0 11,2 20,1 20,6 11 6 19 10 SW 1019,2 33 0 0,0
21.10.2018 06:00:00 14,7 11,1 11,4 20,1 20,6 6 4 19 10 W 1019,8 29 0 0,0
21.10.2018 05:00:00 16,1 11,5 12,6 20,2 20,6 11 6 20 11 SW 1020,0 33 0 0,0
21.10.2018 04:00:00 16,4 11,8 12,8 20,2 20,6 13 7 21 11 SW 1020,1 33 0 0,0
21.10.2018 03:00:00 14,9 11,9 11,9 20,3 20,6 9 5 13 7 SSW 1020,7 28 0 0,0
21.10.2018 02:00:00 14,3 12,2 11,2 20,4 20,6 9 5 13 7 SSW 1021,1 20 0 0,0
21.10.2018 01:00:00 14,8 11,9 11,3 20,4 20,6 8 4 10 5 SW 1021,6 26 0 0,0
21.10.2018 00:00:00 14,6 12,3 12,3 20,4 20,6 9 5 16 8 SW 1021,8 24 0 0,0
20.10.2018 23:00:00 15,4 12,2 12,3 20,4 20,6 9 5 12 7 SW 1021,9 26 0 0,0
20.10.2018 22:00:00 15,2 12,9 12,8 20,4 20,6 7 4 11 6 SW 1021,5 20 0 0,0
20.10.2018 21:00:00 16,0 13,1 13,1 20,3 20,6 6 4 11 6 SW 1021,1 22 0 0,0
20.10.2018 20:00:00 17,0 14,8 14,1 20,2 20,6 6 3 9 5 WSW 1021,3 12 0 0,0
20.10.2018 19:00:00 19,5 16,2 16,5 20,2 20,6 6 4 28 15 W 1021,0 16 10 0,0
20.10.2018 18:00:00 21,9 17,9 21,7 20,1 20,6 2 1 9 5 SSW 1020,8 19 38 0,0
20.10.2018 17:00:00 21,8 17,6 21,4 20,0 20,6 7 4 23 13 N 1020,6 20 20 0,0
20.10.2018 16:00:00 23,1 17,3 24,7 19,9 20,6 9 5 26 14 N 1020,9 18 48 0,0
20.10.2018 15:00:00 22,7 16,5 24,1 19,8 20,6 9 5 19 10 N 1021,1 19 48 0,0
20.10.2018 14:00:00 23,2 17,6 29,0 19,8 20,6 13 7 22 12 N 1021,6 10 60 0,0
20.10.2018 13:00:00 23,3 18,0 29,6 19,9 20,6 13 7 26 14 N 1022,0 19 60 0,0
20.10.2018 12:00:00 23,5 16,3 30,9 19,9 20,6 8 5 15 8 NE 1022,1 20 60 0,0
20.10.2018 11:00:00 22,6 17,1 26,8 19,9 20,6 3 2 13 7 N 1021,6 20 60 0,0
20.10.2018 10:00:00 20,9 16,7 19,5 20,0 20,6 3 1 7 4 NNW 1021,2 44 60 0,0
20.10.2018 09:00:00 18,3 15,9 14,5 20,1 20,6 5 3 12 7 SSW 1020,7 20 58 0,0
20.10.2018 08:00:00 16,2 14,7 13,8 20,1 20,6 8 5 14 8 SW 1019,9 32 0 0,0
20.10.2018 07:00:00 15,5 14,5 12,5 20,2 20,6 8 5 11 6 SW 1019,7 20 0 0,0
20.10.2018 06:00:00 16,0 15,0 13,1 20,2 20,6 5 3 12 7 SW 1019,8 20 0 0,0
20.10.2018 05:00:00 15,6 15,0 13,6 20,3 20,6 7 4 11 6 SSW 1019,6 12 0 0,0
20.10.2018 04:00:00 15,9 15,3 13,8 20,3 20,6 7 4 9 5 SSW 1019,6 14 0 0,0
20.10.2018 03:00:00 16,2 15,7 13,8 20,4 20,6 5 3 10 5 SW 1019,6 10 0 0,0
20.10.2018 02:00:00 16,4 15,8 13,2 20,4 20,6 7 4 9 5 WSW 1019,4 11 0 0,0
20.10.2018 01:00:00 16,8 16,3 13,2 20,4 20,6 7 4 10 5 WNW 1019,2 8 0 0,0
20.10.2018 00:00:00 17,3 16,7 12,9 20,4 20,6 6 3 9 5 SW 1018,8 11 0 0,0
19.10.2018 23:00:00 17,5 17,0 13,7 20,4 20,6 6 3 8 4 SW 1018,6 9 0 0,0
19.10.2018 22:00:00 17,3 16,8 14,9 20,3 20,6 5 3 7 4 SW 1018,5 4,7 0 0,0
19.10.2018 21:00:00 18,3 17,8 14,6 20,3 20,6 4 2 6 4 W 1018,1 6 0 0,0
19.10.2018 20:00:00 18,5 17,3 15,2 20,2 20,6 4 2 8 4 SSW 1017,6 4,3 0 0,0
19.10.2018 19:00:00 19,9 18,0 16,7 20,0 20,6 5 3 7 4 SE 1016,9 1,9 0 0,0
19.10.2018 18:00:00 21,3 18,7 20,5 20,0 20,6 4 2 10 5 S 1016,4 19 4 0,0
19.10.2018 17:00:00 22,6 19,0 24,4 19,9 20,6 5 3 13 7 SE 1016,4 20 49 0,0
19.10.2018 16:00:00 22,7 18,5 27,2 19,8 20,6 7 4 15 8 SE 1016,3 18 55 0,0
19.10.2018 15:00:00 23,0 18,5 28,7 19,7 20,6 8 4 19 10 ESE 1016,1 20 52 0,0
19.10.2018 14:00:00 23,2 19,1 28,3 19,7 20,7 10 6 19 10 E 1016,3 19 54 0,0
19.10.2018 13:00:00 22,8 18,1 31,7 19,7 20,7 10 6 17 9 E 1016,6 17 60 0,0
19.10.2018 12:00:00 23,0 18,5 25,6 19,7 20,6 9 5 15 8 E 1016,8 19 49 0,0
19.10.2018 11:00:00 22,3 18,7 24,7 19,8 20,7 6 3 16 9 NNE 1017,0 19 47 0,0
19.10.2018 10:00:00 20,2 18,0 17,6 19,8 20,6 4 2 8 4 SSW 1016,7 25 52 0,0
19.10.2018 09:00:00 17,1 16,1 15,1 19,9 20,6 6 3 12 6 SW 1016,2 20 54 0,0
19.10.2018 08:00:00 16,0 15,2 13,8 19,9 20,6 7 4 12 6 SW 1015,2 19 0 0,0
19.10.2018 07:00:00 15,5 14,7 14,0 20,0 20,7 6 3 12 6 SW 1015,1 16 0 0,0
19.10.2018 06:00:00 15,3 14,3 13,8 20,0 20,6 8 4 12 7 SW 1014,9 19 0 0,0
19.10.2018 05:00:00 15,4 14,4 13,7 20,1 20,7 8 4 12 6 SW 1014,7 20 0 0,0
19.10.2018 04:00:00 15,2 14,4 13,8 20,1 20,7 7 4 11 6 SW 1014,4 19 0 0,0
19.10.2018 03:00:00 15,5 14,7 13,9 20,1 20,7 8 4 11 6 SW 1014,5 20 0 0,0
19.10.2018 02:00:00 15,6 14,6 13,4 20,2 20,7 8 4 10 6 SW 1014,4 26 0 0,0
19.10.2018 01:00:00 15,7 14,9 13,3 20,2 20,7 7 4 9 5 SW 1014,2 19 0 0,0
19.10.2018 00:00:00 16,1 15,5 14,4 20,2 20,7 6 4 10 5 SW 1014,5 19 0 0,0
18.10.2018 23:00:00 16,3 15,7 14,9 20,1 20,7 6 4 10 5 SW 1014,3 12 0 0,0
18.10.2018 22:00:00 16,8 16,2 15,1 20,1 20,7 6 4 10 5 SW 1014,0 11 0 0,0
18.10.2018 21:00:00 17,3 16,5 13,9 20,0 20,7 5 3 8 5 SW 1013,7 8 0 0,0
18.10.2018 20:00:00 18,2 17,0 15,0 19,9 20,7 4 2 10 5 SW 1013,3 12 0 0,0
18.10.2018 19:00:00 19,7 17,7 16,4 19,8 20,7 5 3 7 4 W 1012,8 19 0 0,0
18.10.2018 18:00:00 21,5 17,5 21,4 19,7 20,7 5 3 9 5 ESE 1012,5 29 48 0,0
18.10.2018 17:00:00 22,3 17,4 26,7 19,6 20,7 6 4 15 8 ENE 1012,6 36 60 0,0
18.10.2018 16:00:00 22,7 17,8 27,7 19,5 20,7 7 4 17 9 NNE 1012,6 35 56 0,0
18.10.2018 15:00:00 23,5 17,9 30,6 19,5 20,7 5 3 15 8 ESE 1012,8 24 60 0,0
18.10.2018 14:00:00 22,5 16,8 26,4 19,4 20,7 9 5 14 8 E 1013,4 45 28 0,0
18.10.2018 13:00:00 23,3 18,0 25,6 19,4 20,7 4 2 18 10 SSE 1013,7 16 39 0,0
18.10.2018 12:00:00 21,8 18,0 24,6 19,4 20,7 4 2 10 6 ENE 1014,2 20 20 0,0
18.10.2018 11:00:00 20,9 18,3 22,9 19,5 20,7 4 2 8 5 NNE 1014,1 20 48 0,0
18.10.2018 10:00:00 18,9 18,4 18,7 19,5 20,7 4 2 10 5 WSW 1014,1 18 15 0,0
18.10.2018 09:00:00 17,6 17,4 15,3 19,5 20,7 6 3 9 5 SW 1013,9 32 60 0,0
18.10.2018 08:00:00 15,6 15,3 14,6 19,6 20,8 7 4 11 6 SW 1013,4 20 1 0,0
18.10.2018 07:00:00 15,4 15,1 13,5 19,6 20,7 8 5 11 6 SW 1013,4 20 0 0,0
18.10.2018 06:00:00 15,4 15,1 14,1 19,6 20,7 8 4 10 5 SW 1013,5 20 0 0,0
18.10.2018 05:00:00 15,9 15,6 13,7 19,7 20,8 5 3 9 5 SW 1013,4 20 0 0,0
18.10.2018 04:00:00 16,0 15,7 14,5 19,7 20,8 6 3 9 5 SW 1013,8 14 0 0,0
18.10.2018 03:00:00 16,3 16,0 14,0 19,7 20,8 6 4 8 5 SW 1014,4 15 0 0,0
18.10.2018 02:00:00 16,8 16,3 15,4 19,7 20,8 6 3 9 5 WSW 1014,8 8 0 0,0
18.10.2018 01:00:00 17,5 17,0 16,2 19,7 20,8 3 2 9 5 W 1014,9 20 0 0,6
18.10.2018 00:00:00 17,6 17,1 16,2 19,7 20,8 4 2 6 4 SSW 1015,0 20 0 0,0
17.10.2018 23:00:00 17,8 17,2 16,7 19,7 20,8 4 2 9 5 SW 1015,2 13 0 0,4
17.10.2018 22:00:00 18,1 17,3 17,0 19,6 20,8 4 2 23 12 W 1015,3 19 0 4,7
17.10.2018 21:00:00 18,4 17,2 17,6 19,6 20,8 11 6 21 11 SSW 1015,0 0,9 0 3,5
17.10.2018 20:00:00 19,1 17,9 17,7 19,6 20,8 5 3 8 4 WSW 1015,0 20 0 0,0
17.10.2018 19:00:00 19,5 18,0 18,5 19,5 20,8 4 2 9 5 S 1014,8 2,1 0 0,0
17.10.2018 18:00:00 19,9 18,4 19,5 19,5 20,8 7 4 28 15 SSE 1014,4 20 0 0,0
17.10.2018 17:00:00 20,2 18,3 19,3 19,4 20,9 16 8 26 14 ESE 1014,4 20 0 0,0
17.10.2018 16:00:00 19,6 17,7 19,2 19,4 20,9 11 6 18 10 SE 1015,0 60 0 0,0
17.10.2018 15:00:00 19,5 18,3 18,6 19,4 20,9 6 3 29 16 S 1014,6 39 0 1,2
17.10.2018 14:00:00 20,9 18,5 21,0 19,3 20,9 18 10 33 18 ESE 1014,7 20 0 0,0
17.10.2018 13:00:00 20,7 19,4 18,7 19,4 20,9 17 9 32 17 ESE 1015,4 20 0 1,6
17.10.2018 12:00:00 19,6 18,6 18,9 19,4 20,9 9 5 22 12 SE 1015,8 19 0 0,0

tt = Température de l'air
td = dewpoint
tt 5cm = Température de l'air 5cm
tt -20cm = Température de l'air -20cm
tt -100cm = Température de l'air -100cm
ff = Vitesse du vent
fx = gusts
dd = Direction du vent
ppp = reduced air pressure
vv = visibility
sd = Ensoleillement
rr = Quantités de précipitations

stations d'obs. à proximité